sat.trackr.live / text

‹ back to catalog

STARLINK-32381

NORAD 61066 · 2024-164S

PAYLOAD ACTIVE UNKNOWN

§ Identity

Operator
Country
US
Launch date
2024-09-13
Launch site
AFWTR
Launch vehicle
Mass (kg)
RCS (m²)

Purposes: comms

External: N2YO · Heavens-Above · Gunter

§ Orbital elements

Epoch: 2026-05-25T02:29:36.265344Z

Period
94.11 min
Inclination
53.1608°
Eccentricity
0.0001226
Mean motion
15.30193674 rev/d
Perigee alt
474.4 km
Apogee alt
476.1 km
Semi-major
6,853.4 km
B*
1.7684e-5
RAAN
96.4104°
Arg perigee
97.8346°
Mean anomaly
262.2794°
Rev number
9,517

§ Raw data

STARLINK-323811 61066U 24164S   26145.10389196  .00000165  00000+0  17684-4 0  99922 61066  53.1608  96.4104 0001226  97.8346 262.2794 15.30193674 95179

JSON: /api/v1/satellites/61066 · /tle

For live sub-satellite position, see the globe view (requires WebGL).

§ Visibility from observer

Set your observer location to see the next 7 days of passes ≥ 10°. The values pass through the URL so the page stays shareable.

No JS? Fill the form by hand. The geolocation button needs JavaScript.